Stations météo

réclame
Mon MeteoGroup
Aviemore, Grande-Bretagne (3063): Température de l'air & dewpoint: 13.11.2017 17:00:00 - 19.11.2017 17:00:00 (GMT)Aviemore, Grande-Bretagne (3063): Vitesse du vent & gusts: 13.11.2017 17:00:00 - 19.11.2017 17:00:00 (GMT)Aviemore, Grande-Bretagne (3063): Direction du vent: 13.11.2017 17:00:00 - 19.11.2017 17:00:00 (GMT)Aviemore, Grande-Bretagne (3063): reduced air pressure: 13.11.2017 17:00:00 - 19.11.2017 17:00:00 (GMT)Aviemore, Grande-Bretagne (3063): visibility: 13.11.2017 17:00:00 - 19.11.2017 17:00:00 (GMT)Aviemore, Grande-Bretagne (3063): Ensoleillement: 13.11.2017 17:00:00 - 19.11.2017 17:00:00 (GMT)Aviemore, Grande-Bretagne (3063): Quantités de précipitations: 13.11.2017 17:00:00 - 19.11.2017 17:00:00 (GMT)
Date & Time tt [°C] td [°C] ff [km/h] ff [knt] fx [km/h] fx [knt] dd ppp [hPa] vv [km] sd [min] rr [mm]
19.11.2017 17:00:00 1,7 0,6 2 1 - - SW 1019,9 35 0 0,0
19.11.2017 16:00:00 2,1 0,7 4 2 - - SW 1020,0 40 0 0,0
19.11.2017 15:00:00 2,8 0,9 4 2 - - SSW 1020,4 40 0 0,0
19.11.2017 14:00:00 2,9 0,9 4 2 - - SSW 1020,8 40 0 0,0
19.11.2017 13:00:00 3,4 0,9 5 3 - - SW 1021,5 35 12 0,0
19.11.2017 12:00:00 2,1 0,8 2 1 - - SW 1021,9 22 0 0,4
19.11.2017 11:00:00 1,5 1,1 2 1 - - S 1022,3 20 0 0,0
19.11.2017 10:00:00 1,1 0,8 2 1 - - W 1022,1 18 0 0,0
19.11.2017 09:00:00 0,7 0,4 2 1 - - SW 1022,3 7 0 0,0
19.11.2017 08:00:00 0,7 0,2 2 1 - - SW 1022,1 18 0 -
19.11.2017 07:00:00 0,0 -0,7 5 3 - - W 1022,0 22 0 0,0
19.11.2017 06:00:00 0,7 0,1 4 2 - - SW 1021,6 24 0 0,0
19.11.2017 05:00:00 -0,9 -2,0 2 1 - - WNW 1021,9 21 0 0,0
19.11.2017 04:00:00 0,8 -1,4 4 2 - - WNW 1021,5 26 0 0,0
19.11.2017 03:00:00 2,7 -0,2 8 4 - - WNW 1021,2 23 0 0,0
19.11.2017 02:00:00 0,5 -0,8 4 2 - - NW 1021,3 30 0 -
19.11.2017 01:00:00 0,4 -0,3 5 3 - - WNW 1021,1 28 0 0,0
19.11.2017 00:00:00 0,8 0,3 2 1 - - NW 1020,9 30 - 0,0
18.11.2017 23:00:00 1,2 0,3 2 1 - - WSW 1020,7 35 0 0,0
18.11.2017 22:00:00 1,9 0,1 4 2 - - SW 1020,0 50 0 0,0
18.11.2017 21:00:00 2,6 1,2 4 2 - - WSW 1019,7 40 0 0,0
18.11.2017 20:00:00 2,6 1,2 4 2 - - SSW 1019,6 17 0 0,4
18.11.2017 19:00:00 3,3 0,1 4 2 - - WNW 1019,2 6 0 0,2
18.11.2017 18:00:00 3,7 -1,2 5 3 - - W 1018,8 9 0 0,0
18.11.2017 17:00:00 3,3 -2,3 5 3 - - SSW 1018,3 27 0 0,0
18.11.2017 16:00:00 3,5 -2,3 5 3 - - SSW 1017,9 24 0 0,0
18.11.2017 15:00:00 3,8 -3,2 9 5 - - S 1017,4 35 60 0,0
18.11.2017 14:00:00 5,0 -3,3 9 5 - - W 1017,0 26 60 0,0
18.11.2017 13:00:00 4,3 -2,6 9 5 - - W 1016,8 28 12 0,0
18.11.2017 12:00:00 3,6 -2,8 8 4 - - SW 1017,5 30 18 0,0
18.11.2017 11:00:00 3,1 -2,4 8 4 - - WSW 1017,2 25 12 0,0
18.11.2017 10:00:00 3,3 -1,8 4 2 - - S 1017,3 27 48 0,0
18.11.2017 09:00:00 1,2 -1,2 5 3 - - SSW 1017,4 35 0 0,0
18.11.2017 08:00:00 1,1 -2,4 5 3 - - SSW 1017,3 45 0 0,0
18.11.2017 07:00:00 1,2 -1,0 5 3 - - SW 1016,9 25 0 0,0
18.11.2017 06:00:00 1,2 -0,9 5 3 - - SW 1016,1 35 0 0,0
18.11.2017 05:00:00 2,2 -0,3 5 3 - - WSW 1015,9 5 0 0,2
18.11.2017 04:00:00 2,6 -0,7 9 5 - - W 1015,3 40 0 0,4
18.11.2017 03:00:00 2,7 0,7 5 3 - - W 1015,5 12 0 1,0
18.11.2017 02:00:00 3,2 1,0 11 6 - - W 1015,4 1,4 0 0,4
18.11.2017 01:00:00 3,6 1,0 8 4 - - W 1014,7 50 0 0,6
18.11.2017 00:00:00 4,4 2,0 9 5 46 25 W 1014,5 3,9 - 0,2
17.11.2017 23:00:00 5,1 1,3 9 5 - - SW 1014,0 45 0 0,0
17.11.2017 22:00:00 4,5 2,9 9 5 - - SW 1014,5 13 0 0,8
17.11.2017 21:00:00 4,8 2,7 15 8 - - WSW 1014,9 6 0 0,2
17.11.2017 20:00:00 5,4 2,1 15 8 - - SW 1014,7 40 0 0,0
17.11.2017 19:00:00 5,3 1,5 15 8 - - SW 1015,1 50 0 0,0
17.11.2017 18:00:00 5,3 1,5 15 8 - - SW 1015,5 50 0 0,0
17.11.2017 17:00:00 5,0 2,0 11 6 - - SSW 1016,3 45 0 0,0
17.11.2017 16:00:00 5,6 1,7 13 7 - - SW 1016,7 40 0 0,0
17.11.2017 15:00:00 6,4 1,9 13 7 - - SW 1017,0 26 24 0,0
17.11.2017 14:00:00 6,5 2,6 13 7 - - SW 1017,7 45 6 0,0
17.11.2017 13:00:00 6,3 2,2 13 7 - - SW 1018,1 40 0 0,0
17.11.2017 12:00:00 6,1 2,7 11 6 - - SW 1018,8 50 6 0,0
17.11.2017 11:00:00 6,0 2,7 13 7 - - SSW 1019,2 40 6 0,0
17.11.2017 10:00:00 5,5 2,6 13 7 - - SW 1019,1 40 0 0,0
17.11.2017 09:00:00 5,1 2,6 9 5 - - SW 1019,5 40 0 0,0
17.11.2017 08:00:00 4,6 2,3 13 7 - - SW 1020,1 23 0 0,0
17.11.2017 07:00:00 4,6 2,4 13 7 - - SW 1020,2 50 0 0,0
17.11.2017 06:00:00 4,1 2,1 13 7 - - SW 1019,9 45 0 -
17.11.2017 05:00:00 3,9 1,8 11 6 - - SW 1020,6 26 0 0,0
17.11.2017 04:00:00 3,9 1,1 13 7 - - SW 1020,8 35 0 0,0
17.11.2017 03:00:00 4,0 0,9 15 8 - - SW 1021,2 30 0 0,0
17.11.2017 02:00:00 3,2 0,9 9 5 - - SW 1021,9 30 0 0,0
17.11.2017 01:00:00 2,1 0,2 8 4 - - SSW 1022,2 28 0 0,0
17.11.2017 00:00:00 1,8 0,1 8 4 - - SSW 1022,5 16 - 0,0
16.11.2017 23:00:00 3,1 -0,4 11 6 - - SW 1022,0 30 0 0,0
16.11.2017 22:00:00 2,8 -0,6 13 7 - - SW 1022,2 35 0 0,0
16.11.2017 21:00:00 2,4 -0,8 9 5 - - SW 1021,8 30 0 0,0
16.11.2017 20:00:00 2,7 -0,7 8 4 - - SW 1021,5 30 0 0,0
16.11.2017 19:00:00 2,1 -1,1 5 3 - - SW 1020,7 45 0 -
16.11.2017 18:00:00 3,8 -0,1 8 4 - - SW 1020,2 28 0 0,0
16.11.2017 17:00:00 2,4 -0,4 8 4 - - WSW 1019,4 35 0 0,0
16.11.2017 16:00:00 2,7 -0,4 8 4 - - SW 1018,7 35 0 0,0
16.11.2017 15:00:00 4,2 -0,5 11 6 - - SW 1017,6 40 60 0,0
16.11.2017 14:00:00 4,8 0,0 11 6 - - SW 1016,9 35 60 0,0
16.11.2017 13:00:00 5,1 -0,1 15 8 - - SW 1015,8 35 60 0,0
16.11.2017 12:00:00 4,8 1,0 11 6 - - SW 1015,5 23 54 0,0
16.11.2017 11:00:00 2,2 0,4 8 4 - - WSW 1015,3 45 6 1,6
16.11.2017 10:00:00 3,7 0,1 9 5 - - WSW 1013,3 35 12 0,2
16.11.2017 09:00:00 2,8 0,7 9 5 - - SW 1012,4 40 0 1,4
16.11.2017 08:00:00 4,1 1,6 13 7 - - WSW 1010,2 50 0 1,4
16.11.2017 07:00:00 5,7 3,8 11 6 - - SW 1008,6 11 0 0,0
16.11.2017 06:00:00 5,6 4,6 11 6 - - SW 1007,4 45 0 0,6
16.11.2017 05:00:00 6,5 4,3 15 8 48 26 SW 1007,6 17 0 2,4
16.11.2017 04:00:00 9,5 6,8 11 6 - - SW 1005,0 22 0 0,0
16.11.2017 03:00:00 9,6 6,4 18 10 - - SSW 1006,0 50 0 0,0
16.11.2017 02:00:00 9,3 6,3 18 10 - - SW 1007,0 50 0 0,0
16.11.2017 01:00:00 8,8 6,0 18 10 48 26 SSW 1008,3 50 0 0,0
16.11.2017 00:00:00 8,5 5,6 21 11 52 28 SSW 1009,9 50 - 0,0
15.11.2017 23:00:00 8,1 5,2 16 9 46 25 SW 1010,9 50 0 0,0
15.11.2017 22:00:00 7,5 4,7 21 11 50 27 SSW 1011,2 50 0 0,0
15.11.2017 21:00:00 7,3 4,3 22 12 46 25 SSW 1012,5 35 0 0,0
15.11.2017 20:00:00 7,0 3,5 16 9 - - SSW 1014,1 40 0 0,0
15.11.2017 19:00:00 7,2 3,3 13 7 - - SSW 1015,4 40 0 0,0
15.11.2017 18:00:00 7,0 3,5 15 8 48 26 SSW 1016,1 35 0 0,0
15.11.2017 17:00:00 6,7 3,5 16 9 - - SSW 1016,6 29 0 0,0
15.11.2017 16:00:00 6,7 3,4 11 6 - - SSW 1018,1 50 0 0,0
15.11.2017 15:00:00 6,5 3,7 9 5 - - SW 1019,4 40 0 0,0
15.11.2017 14:00:00 5,6 4,5 4 2 - - SSW 1020,4 30 0 0,0
15.11.2017 13:00:00 4,8 3,8 4 2 - - S 1021,3 29 0 0,0
15.11.2017 12:00:00 3,6 3,5 2 1 - - E 1022,3 25 0 0,0
15.11.2017 11:00:00 2,4 2,4 2 1 - - SW 1023,0 27 0 0,0
15.11.2017 10:00:00 1,1 1,1 4 2 - - NE 1023,1 10 0 0,0
15.11.2017 09:00:00 0,0 -0,1 2 1 - - NNE 1023,0 7 0 0,0
15.11.2017 08:00:00 0,4 0,4 2 1 - - SSE 1022,9 12 0 0,0
15.11.2017 07:00:00 0,6 0,5 4 2 - - N 1022,5 11 0 0,0
15.11.2017 06:00:00 0,6 0,2 4 2 - - W 1022,3 17 0 0,0
15.11.2017 05:00:00 0,7 0,5 2 1 - - WSW 1021,9 24 0 0,0
15.11.2017 04:00:00 1,2 1,0 5 3 - - W 1021,6 25 0 0,0
15.11.2017 03:00:00 2,1 1,8 4 2 - - W 1021,2 21 0 0,0
15.11.2017 02:00:00 3,7 3,4 5 3 - - SSW 1020,4 30 0 0,2
15.11.2017 01:00:00 3,7 3,2 5 3 - - SW 1020,0 40 0 0,2
15.11.2017 00:00:00 3,5 2,5 5 3 - - WSW 1019,6 26 - 0,2
14.11.2017 23:00:00 5,1 3,4 5 3 - - SW 1019,0 13 0 0,0
14.11.2017 22:00:00 4,5 2,8 8 4 - - SW 1018,5 50 0 0,0
14.11.2017 21:00:00 4,5 2,8 5 3 - - SW 1018,3 45 0 0,0
14.11.2017 20:00:00 4,5 3,2 8 4 - - SW 1017,9 50 0 0,0
14.11.2017 19:00:00 5,1 3,7 8 4 - - SW 1017,7 40 0 0,0
14.11.2017 18:00:00 4,8 4,0 9 5 - - SSW 1017,4 40 0 0,0
14.11.2017 17:00:00 5,6 4,1 9 5 - - SSW 1017,0 30 0 0,0
14.11.2017 16:00:00 6,4 4,0 8 4 - - SSW 1016,9 50 0 0,0
14.11.2017 15:00:00 6,7 4,0 5 3 - - SW 1016,6 35 0 0,0
14.11.2017 14:00:00 7,3 4,3 5 3 - - SSW 1016,7 40 0 0,0
14.11.2017 13:00:00 7,5 4,7 5 3 - - S 1016,8 40 0 0,0
14.11.2017 12:00:00 7,2 4,7 8 4 - - SSW 1016,8 45 6 0,0
14.11.2017 11:00:00 7,2 5,2 8 4 - - SSW 1017,0 35 42 0,0
14.11.2017 10:00:00 5,9 5,2 5 3 - - SW 1017,0 45 0 0,0
14.11.2017 09:00:00 4,0 3,4 4 2 - - WSW 1016,8 35 0 0,0
14.11.2017 08:00:00 5,1 4,3 4 2 - - WSW 1016,5 21 0 -
14.11.2017 07:00:00 5,9 4,6 5 3 - - SSW 1015,6 30 0 0,0
14.11.2017 06:00:00 5,0 4,2 5 3 - - SSW 1015,0 35 0 0,0
14.11.2017 05:00:00 6,3 4,1 5 3 - - WSW 1014,4 35 0 0,0
14.11.2017 04:00:00 6,2 5,0 5 3 - - WSW 1013,9 40 0 -
14.11.2017 03:00:00 6,1 5,0 5 3 - - WSW 1013,8 45 0 0,0
14.11.2017 02:00:00 6,9 5,6 4 2 - - SW 1013,3 35 0 0,0
14.11.2017 01:00:00 7,0 5,5 4 2 - - W 1012,8 15 0 0,0
14.11.2017 00:00:00 7,5 5,8 9 5 - - W 1012,2 12 - 0,4
13.11.2017 23:00:00 8,2 7,5 4 2 - - W 1011,3 13 0 -
13.11.2017 22:00:00 7,3 6,9 8 4 - - SSW 1011,0 7 0 0,0
13.11.2017 21:00:00 6,4 6,0 9 5 - - SSW 1011,2 17 0 0,0
13.11.2017 20:00:00 5,7 5,1 13 7 - - SSW 1011,7 7 0 0,2
13.11.2017 19:00:00 5,4 4,6 18 10 - - SW 1012,2 5 0 0,0
13.11.2017 18:00:00 4,8 4,1 13 7 - - SSW 1013,2 5 0 0,0
13.11.2017 17:00:00 4,2 3,3 13 7 - - SSW 1014,5 6 0 0,2

tt = Température de l'air
td = dewpoint
ff = Vitesse du vent
fx = gusts
dd = Direction du vent
ppp = reduced air pressure
vv = visibility
sd = Ensoleillement
rr = Quantités de précipitations

stations d'obs. à proximité